Location: Churchill Northern Studies Centre
(58.7378°N, 93.8201°W)
Time: 18:50:43
(UTC-06:00)

Envisat - Pass Details

Date: 08 October 2017
Orbit: 764 x 766 km, 98.2° (Epoch: 14 December)

Event Time Altitude Azimuth Distance (km) Brightness Sun altitude
Exits shadow 19:41:32 - 133° (SE) 2,620 5.3 -10.4°
Reaches altitude 10° 19:42:22 10° 131° (SE) 2,307 5.0 -10.5°
Maximum altitude 19:47:09 43° 61° (ENE) 1,075 3.4 -11.1°
Drops below altitude 10° 19:51:57 10° 351° (N) 2,321 5.7 -11.7°
Sets 19:54:21 0° 345° (NNW) 3,252 6.6 -12.1°
